Back to catalog

COSMOS 2544

GLONASS

AliveNavigationMEO
NORAD 44850·PAYLOAD·🇷🇺 Russia

Launched Dec 11, 2019 from Plesetsk Cosmodrome

Loading…

Next Passes (next 24 hours)

TLE

FreshSource: CelesTrak SupGP

Epoch: Sep 13, 2026, 23:59 UTC

1 44850C 19088A   26256.99979167  .00000000  00000+0  00000+0 0  2569
2 44850  65.6199  70.7693 0012203 244.5246 330.4285  2.13103049    15

Track COSMOS 2544 in real time with AllMySat

Download on the App Store